Location: Aciu?a
(46.2833°N, 22.4500°E)
Time: 05:49:35
(UTC+00:00)

NOSS 3-1 (A) - Pass Details

Date: 25 October 2021
Orbit: 721 x 1491 km, 63.4° (Epoch: 22 November)

Event Time Altitude Azimuth Distance (km) Brightness Sun altitude
Rises 17:04:28 0° 216° (SW) 3,186 6.7 -17.5°
Reaches altitude 10° 17:06:42 10° 216° (SW) 2,315 6.0 -17.9°
Maximum altitude 17:11:59 88° 132° (SE) 860 3.2 -18.8°
Enters shadow 17:17:04 16° 39° (NE) 2,288 5.1 -19.7°
